EW7038 Weather Reports


Display with metric or nautical units.
time (UTC)temp
F
wind
direction
speed
MPH
gust
MPH
rain 1hr
in
rain 24hr
in
rain mn
in
humidity
%
barometer
mb
20260510172805 59 278 11.0 22.0 0.00 0.00 0.00 61 1015.7
20260510172307 59 275 13.0 25.0 0.00 0.00 0.00 57 1015.5
20260510171805 59 270 12.0 25.0 0.00 0.00 0.00 59 1015.5
20260510171305 59 276 10.0 23.0 0.00 0.00 0.00 61 1015.5
20260510170805 58 281 12.0 20.0 0.00 0.00 0.00 61 1015.5
20260510170305 58 288 7.0 21.0 0.00 0.00 0.00 62 1015.5
20260510165805 58 286 15.0 23.0 0.00 0.00 0.00 60 1015.3
20260510165306 58 273 10.0 21.0 0.00 0.00 0.00 60 1015.5
20260510164805 58 255 9.0 16.0 0.00 0.00 0.00 62 1015.7
20260510163805 58 269 9.0 17.0 0.00 0.00 0.00 62 1015.7
20260510163305 57 274 9.0 26.0 0.00 0.00 0.00 63 1015.5
20260510162805 57 282 9.0 22.0 0.00 0.00 0.00 64 1015.7
20260510162306 57 282 13.0 25.0 0.00 0.00 0.00 60 1015.4
20260510161805 57 283 14.0 25.0 0.00 0.00 0.00 62 1015.5
20260510161306 57 270 15.0 28.0 0.00 0.00 0.00 62 1015.6
20260510160806 57 276 14.0 29.0 0.00 0.00 0.00 61 1015.7
20260510160305 58 267 12.0 25.0 0.00 0.00 0.00 61 1015.6
20260510155805 58 267 12.0 22.0 0.00 0.00 0.00 60 1015.4
20260510155306 58 290 7.0 25.0 0.00 0.00 0.00 62 1015.5
20260510154805 58 288 8.0 21.0 0.00 0.00 0.00 62 1015.5
20260510154305 58 288 9.0 18.0 0.00 0.00 0.00 61 1015.5
20260510153805 58 295 6.0 15.0 0.00 0.00 0.00 62 1015.3
20260510153304 58 298 6.0 12.0 0.00 0.00 0.00 63 1015.3
20260510152805 58 292 5.0 14.0 0.00 0.00 0.00 63 1015.4
20260510151805 57 281 5.0 15.0 0.00 0.00 0.00 64 1015.4
20260510151305 57 261 8.0 14.0 0.00 0.00 0.00 62 1015.3
20260510150805 57 281 7.0 17.0 0.00 0.00 0.00 63 1015.3
20260510150305 57 283 9.0 18.0 0.00 0.00 0.00 61 1015.2
20260510145805 57 282 9.0 21.0 0.00 0.00 0.00 62 1015.3
20260510145306 57 263 10.0 16.0 0.00 0.00 0.00 62 1015.3
20260510144804 57 266 11.0 18.0 0.00 0.00 0.00 61 1015.4
20260510144306 57 272 8.0 18.0 0.00 0.00 0.00 62 1015.2
20260510143805 57 279 7.0 15.0 0.00 0.00 0.00 62 1015.0
20260510143305 57 283 7.0 16.0 0.00 0.00 0.00 62 1014.9
20260510142805 57 283 7.0 21.0 0.00 0.00 0.00 63 1015.0
20260510141805 57 272 10.0 18.0 0.00 0.00 0.00 61 1014.8
20260510140804 57 281 6.0 13.0 0.00 0.00 0.00 63 1014.9
20260510140305 57 269 5.0 10.0 0.00 0.00 0.00 64 1014.9
20260510135805 57 250 6.0 14.0 0.00 0.00 0.00 64 1014.9
20260510135306 57 240 9.0 17.0 0.00 0.00 0.00 62 1014.9
20260510134805 57 279 4.0 13.0 0.00 0.00 0.00 64 1014.7
20260510133805 57 267 7.0 17.0 0.00 0.00 0.00 64 1014.9
20260510133305 56 291 5.0 8.0 0.00 0.00 0.00 64 1014.9
20260510132805 56 236 7.0 10.0 0.00 0.00 0.00 65 1014.8
20260510132306 56 229 3.0 10.0 0.00 0.00 0.00 66 1014.8
20260510130805 55 2 2.0 5.0 0.00 0.00 0.00 70 1015.0
20260510130305 55 10 2.0 8.0 0.00 0.00 0.00 70 1014.9
20260510125805 55 314 3.0 6.0 0.00 0.00 0.00 69 1014.9
20260510124805 55 258 5.0 9.0 0.00 0.00 0.00 68 1014.9
20260510124304 55 295 7.0 12.0 0.00 0.00 0.00 67 1014.9
20260510123805 55 311 5.0 8.0 0.00 0.00 0.00 67 1014.9
20260510123304 54 282 3.0 8.0 0.00 0.00 0.00 69 1015.0
20260510122805 54 80 2.0 2.0 0.00 0.00 0.00 67 1014.9
20260510122306 54 154 1.0 3.0 0.00 0.00 0.00 67 1014.9
20260510121805 54 125 2.0 3.0 0.00 0.00 0.00 66 1015.1
20260510121305 54 38 2.0 5.0 0.00 0.00 0.00 66 1015.1
20260510120804 54 233 3.0 6.0 0.00 0.00 0.00 66 1015.0
20260510115806 54 246 5.0 8.0 0.00 0.00 0.00 65 1015.1
20260510114805 54 267 3.0 7.0 0.00 0.00 0.00 66 1014.9
20260510114304 54 288 4.0 8.0 0.00 0.00 0.00 64 1014.8
20260510113805 54 286 3.0 8.0 0.00 0.00 0.00 62 1014.8
20260510113304 55 276 5.0 10.0 0.00 0.00 0.00 61 1014.9
20260510112306 54 270 7.0 12.0 0.00 0.00 0.00 62 1014.8
20260510111305 52 272 3.0 3.0 0.00 0.00 0.00 67 1014.9
20260510110805 52 250 0.0 1.0 0.00 0.00 0.00 66 1014.8
20260510110305 52 145 1.0 1.0 0.00 0.00 0.00 66 1014.7
20260510105306 52 137 2.0 3.0 0.00 0.00 0.00 65 1014.7
20260510104805 52 118 2.0 2.0 0.00 0.00 0.00 66 1014.7
20260510104304 52 143 2.0 3.0 0.00 0.00 0.00 64 1014.7
20260510103304 53 143 2.0 2.0 0.00 0.00 0.00 62 1014.8
20260510102804 53 189 1.0 2.0 0.00 0.00 0.00 61 1014.8
20260510102306 55 244 1.0 3.0 0.00 0.00 0.00 59 1014.9
20260510101805 55 265 3.0 5.0 0.00 0.00 0.00 59 1014.9
20260510101304 55 264 2.0 3.0 0.00 0.00 0.00 59 1014.8
20260510100305 55 233 2.0 3.0 0.00 0.00 0.00 58 1014.7
20260510095804 55 274 1.0 2.0 0.00 0.00 0.00 58 1014.7
20260510095306 55 254 2.0 3.0 0.00 0.00 0.00 58 1014.7
20260510094805 55 231 1.0 2.0 0.00 0.00 0.00 59 1014.7
20260510094304 54 198 1.0 1.0 0.00 0.00 0.00 59 1014.7
20260510093304 54 144 1.0 2.0 0.00 0.00 0.00 60 1014.5
20260510092805 54 152 2.0 2.0 0.00 0.00 0.00 60 1014.6
20260510092306 54 149 2.0 3.0 0.00 0.00 0.00 61 1014.6
20260510091805 54 159 2.0 3.0 0.00 0.00 0.00 60 1014.6
20260510090805 54 150 2.0 2.0 0.00 0.00 0.00 61 1014.6
20260510090305 54 151 2.0 2.0 0.00 0.00 0.00 60 1014.7
20260510085805 55 148 2.0 2.0 0.00 0.00 0.00 59 1014.7
20260510085306 56 154 2.0 2.0 0.00 0.00 0.00 58 1014.7
20260510084805 56 151 2.0 2.0 0.00 0.00 0.00 57 1014.7
20260510084304 57 142 1.0 2.0 0.00 0.00 0.00 56 1014.7
20260510083805 58 184 1.0 3.0 0.00 0.00 0.00 54 1014.8
20260510082804 58 282 2.0 3.0 0.00 0.00 0.00 54 1014.8
20260510082306 58 247 1.0 2.0 0.00 0.00 0.00 54 1014.9
20260510081805 58 220 1.0 3.0 0.00 0.00 0.00 54 1014.9
20260510081305 58 187 1.0 2.0 0.00 0.00 0.00 54 1014.9
20260510080804 58 237 1.0 2.0 0.00 0.00 0.00 54 1014.8
20260510080305 58 215 0.0 2.0 0.00 0.00 0.00 54 1014.9
20260510075306 58 143 1.0 2.0 0.00 0.00 0.00 54 1015.0
20260510074804 58 146 1.0 2.0 0.00 0.00 0.00 54 1015.0
20260510074305 57 142 2.0 2.0 0.00 0.00 0.00 54 1015.0
20260510073804 57 144 1.0 2.0 0.00 0.00 0.00 54 1015.0
20260510073304 57 153 2.0 3.0 0.00 0.00 0.00 55 1015.0
20260510071804 58 140 2.0 2.0 0.00 0.00 0.00 52 1015.0
20260510071304 59 141 2.0 2.0 0.00 0.00 0.00 52 1015.0
20260510070804 59 136 1.0 2.0 0.00 0.00 0.00 50 1015.0
20260510070305 60 151 1.0 2.0 0.00 0.00 0.00 49 1015.0
20260510065805 60 130 1.0 2.0 0.00 0.00 0.00 49 1015.0
20260510064804 60 139 2.0 2.0 0.00 0.00 0.00 48 1014.9
20260510064304 61 151 2.0 2.0 0.00 0.00 0.00 47 1015.0
20260510062804 61 171 2.0 3.0 0.00 0.00 0.00 46 1014.8
20260510061805 61 152 3.0 5.0 0.00 0.00 0.00 46 1014.7
20260510060805 63 264 3.0 7.0 0.00 0.00 0.00 42 1014.6
20260510060304 64 287 3.0 7.0 0.00 0.00 0.00 41 1014.6
20260510055804 63 270 2.0 5.0 0.00 0.00 0.00 42 1014.6
20260510055306 63 255 2.0 5.0 0.00 0.00 0.00 44 1014.6
20260510054804 62 272 3.0 6.0 0.00 0.00 0.00 44 1014.6
20260510054304 61 147 1.0 2.0 0.00 0.00 0.00 47 1014.6
20260510053804 60 192 1.0 3.0 0.00 0.00 0.00 47 1014.6
20260510053304 60 165 2.0 3.0 0.00 0.00 0.00 49 1014.6
20260510052805 60 146 2.0 3.0 0.00 0.00 0.00 48 1014.5
20260510052306 62 144 3.0 3.0 0.00 0.00 0.00 47 1014.4
20260510051804 62 243 1.0 2.0 0.00 0.00 0.00 46 1014.4
20260510051305 63 137 2.0 3.0 0.00 0.00 0.00 46 1014.3
20260510050804 63 165 2.0 3.0 0.00 0.00 0.00 45 1014.3
20260510050304 64 152 2.0 2.0 0.00 0.00 0.00 44 1014.3
20260510045804 64 130 1.0 2.0 0.00 0.00 0.00 43 1014.3
20260510045306 64 169 1.0 1.0 0.00 0.00 0.00 42 1014.2
20260510043804 66 162 3.0 5.0 0.00 0.00 0.00 42 1014.0
20260510043305 70 159 2.0 6.0 0.00 0.00 0.00 36 1014.0
20260510042804 70 296 4.0 6.0 0.00 0.00 0.00 36 1014.0
20260510042306 69 282 2.0 5.0 0.00 0.00 0.00 36 1014.0
20260510041805 69 90 1.0 3.0 0.00 0.00 0.00 37 1014.0
20260510041304 70 263 3.0 6.0 0.00 0.00 0.00 36 1013.9
20260510040805 70 248 2.0 7.0 0.00 0.00 0.00 36 1013.7
20260510035805 69 266 3.0 6.0 0.00 0.00 0.00 36 1013.6
20260510034805 69 243 2.0 6.0 0.00 0.00 0.00 35 1013.5
20260510034304 68 207 2.0 5.0 0.00 0.00 0.00 34 1013.4
20260510033304 69 136 1.0 2.0 0.00 0.00 0.00 32 1013.3
20260510032804 71 200 1.0 3.0 0.00 0.00 0.00 31 1013.3
20260510032306 71 224 2.0 2.0 0.00 0.00 0.00 30 1013.4
20260510031804 72 230 2.0 5.0 0.00 0.00 0.00 29 1013.4
20260510031305 72 247 2.0 3.0 0.00 0.00 0.00 28 1013.4
20260510030805 71 216 1.0 2.0 0.00 0.00 0.00 29 1013.3
20260510030305 71 230 1.0 3.0 0.00 0.00 0.00 29 1013.4
20260510025805 71 214 1.0 2.0 0.00 0.00 0.00 33 1013.4
20260510025306 72 145 2.0 2.0 0.00 0.00 0.00 27 1013.3
20260510024808 72 154 2.0 2.0 0.00 0.00 0.00 30 1013.3
20260510024305 73 156 1.0 2.0 0.00 0.00 0.00 30 1013.3
20260510023304 73 156 1.0 2.0 0.00 0.00 0.00 29 1013.3
20260510022805 74 150 1.0 2.0 0.00 0.00 0.00 29 1013.2
20260510022306 75 153 1.0 1.0 0.00 0.00 0.00 28 1013.2
20260510021804 75 153 1.0 2.0 0.00 0.00 0.00 25 1013.2
20260510021305 75 150 1.0 1.0 0.00 0.00 0.00 26 1013.2
20260510020805 75 147 1.0 1.0 0.00 0.00 0.00 28 1013.2
20260510015805 76 131 1.0 1.0 0.00 0.00 0.00 25 1013.3
20260510015306 76 158 1.0 1.0 0.00 0.00 0.00 32 1013.4
20260510014804 77 133 1.0 1.0 0.00 0.00 0.00 24 1013.3
20260510014305 78 146 0.0 1.0 0.00 0.00 0.00 24 1013.4
20260510013304 80 40 0.0 1.0 0.00 0.00 0.00 21 1013.5
20260510012805 79 228 1.0 2.0 0.00 0.00 0.00 21 1013.5
20260510012306 79 84 0.0 1.0 0.00 0.00 0.00 21 1013.6
20260510011805 80 163 0.0 1.0 0.00 0.00 0.00 24 1013.6
20260510011305 80 45 0.0 1.0 0.00 0.00 0.00 21 1013.6
20260510010804 79 217 0.0 1.0 0.00 0.00 0.00 21 1013.6
20260510005804 81 173 1.0 1.0 0.00 0.00 0.00 19 1013.7
20260510005306 81 334 1.0 1.0 0.00 0.00 0.00 20 1013.8
20260510004804 81 30 1.0 2.0 0.00 0.00 0.00 20 1013.9
20260510004304 81 297 1.0 2.0 0.00 0.00 0.00 19 1013.9
20260510002307 81 343 1.0 2.0 0.00 0.00 0.00 19 1013.9
20260510001305 80 354 1.0 2.0 0.00 0.00 0.00 19 1014.1
20260510000305 80 324 1.0 2.0 0.00 0.00 0.00 19 1013.9
20260509235804 80 107 1.0 2.0 0.00 0.00 0.00 19 1014.0
20260509235307 81 149 1.0 1.0 0.00 0.00 0.00 18 1014.0
20260509234804 81 74 1.0 2.0 0.00 0.00 0.00 18 1014.1
20260509234305 82 7 1.0 2.0 0.00 0.00 0.00 20 1014.2
20260509233804 81 7 1.0 2.0 0.00 0.00 0.00 19 1014.3
20260509233304 82 12 1.0 2.0 0.00 0.00 0.00 19 1014.3
20260509232804 82 331 1.0 2.0 0.00 0.00 0.00 19 1014.4
20260509232306 82 12 1.0 3.0 0.00 0.00 0.00 20 1014.5
20260509231805 82 10 1.0 2.0 0.00 0.00 0.00 20 1014.5
20260509231304 81 347 1.0 3.0 0.00 0.00 0.00 21 1014.7
20260509230805 81 14 1.0 3.0 0.00 0.00 0.00 21 1014.7
20260509230305 81 19 1.0 2.0 0.00 0.00 0.00 22 1014.8
20260509225804 81 6 1.0 3.0 0.00 0.00 0.00 21 1014.9
20260509224804 81 28 2.0 3.0 0.00 0.00 0.00 20 1015.1
20260509224304 80 6 2.0 3.0 0.00 0.00 0.00 22 1015.3
20260509223804 81 3 1.0 3.0 0.00 0.00 0.00 21 1015.3
20260509223305 80 31 1.0 3.0 0.00 0.00 0.00 19 1015.3
20260509222804 79 354 1.0 3.0 0.00 0.00 0.00 19 1015.6
20260509221804 79 352 1.0 3.0 0.00 0.00 0.00 19 1015.8
20260509220805 78 16 1.0 3.0 0.00 0.00 0.00 20 1015.9
20260509220304 78 338 2.0 3.0 0.00 0.00 0.00 20 1016.0
20260509215805 77 349 2.0 5.0 0.00 0.00 0.00 21 1016.0
20260509215306 77 40 2.0 3.0 0.00 0.00 0.00 23 1016.1
20260509214805 78 357 2.0 3.0 0.00 0.00 0.00 22 1016.2
20260509214305 77 50 2.0 3.0 0.00 0.00 0.00 22 1016.2
20260509213804 77 351 2.0 3.0 0.00 0.00 0.00 22 1016.3
20260509212804 77 6 2.0 3.0 0.00 0.00 0.00 24 1016.5
20260509212306 77 4 2.0 3.0 0.00 0.00 0.00 23 1016.5
20260509211804 77 0 2.0 3.0 0.00 0.00 0.00 24 1016.6
20260509211304 76 48 1.0 2.0 0.00 0.00 0.00 24 1016.7
20260509210804 76 357 1.0 2.0 0.00 0.00 0.00 24 1016.8
20260509205307 76 25 1.0 2.0 0.00 0.00 0.00 24 1017.0
20260509204805 75 357 1.0 3.0 0.00 0.00 0.00 25 1017.1
20260509204304 75 5 1.0 2.0 0.00 0.00 0.00 25 1017.2
20260509203305 74 40 2.0 2.0 0.00 0.00 0.00 26 1017.4
20260509202306 74 19 1.0 2.0 0.00 0.00 0.00 28 1017.4
20260509201805 73 341 1.0 3.0 0.00 0.00 0.00 28 1017.5
20260509201304 73 357 1.0 2.0 0.00 0.00 0.00 28 1017.6
20260509200304 72 336 1.0 3.0 0.00 0.00 0.00 32 1017.7
20260509195804 72 40 2.0 3.0 0.00 0.00 0.00 31 1017.8
20260509195306 71 348 2.0 3.0 0.00 0.00 0.00 32 1018.0
20260509194804 72 4 1.0 2.0 0.00 0.00 0.00 30 1018.1
20260509194304 72 19 1.0 3.0 0.00 0.00 0.00 29 1018.2
20260509193805 71 340 1.0 3.0 0.00 0.00 0.00 30 1018.2
20260509193305 71 353 1.0 3.0 0.00 0.00 0.00 29 1018.3
20260509192804 70 8 2.0 3.0 0.00 0.00 0.00 29 1018.4
20260509192306 70 24 2.0 3.0 0.00 0.00 0.00 28 1018.5
20260509191804 69 346 1.0 2.0 0.00 0.00 0.00 32 1018.6
20260509191304 69 49 2.0 3.0 0.00 0.00 0.00 33 1018.5
20260509190804 69 341 1.0 2.0 0.00 0.00 0.00 32 1018.6
20260509190304 68 10 2.0 3.0 0.00 0.00 0.00 33 1018.7
20260509185804 68 345 1.0 3.0 0.00 0.00 0.00 35 1018.8
20260509184804 67 40 2.0 3.0 0.00 0.00 0.00 37 1018.9
20260509184305 67 354 2.0 3.0 0.00 0.00 0.00 37 1019.0
20260509183804 66 351 1.0 2.0 0.00 0.00 0.00 40 1019.0
20260509183304 66 11 2.0 3.0 0.00 0.00 0.00 42 1019.1
20260509182804 66 358 2.0 3.0 0.00 0.00 0.00 41 1019.2
20260509182306 66 12 2.0 3.0 0.00 0.00 0.00 42 1019.2
20260509181805 66 12 2.0 3.0 0.00 0.00 0.00 42 1019.3
20260509181304 66 2 2.0 3.0 0.00 0.00 0.00 43 1019.4
20260509180804 65 344 2.0 3.0 0.00 0.00 0.00 42 1019.4
20260509175804 64 355 1.0 2.0 0.00 0.00 0.00 45 1019.3
20260509174804 64 24 1.0 3.0 0.00 0.00 0.00 45 1019.4
20260509174304 64 336 1.0 3.0 0.00 0.00 0.00 45 1019.4
20260509173305 63 0 2.0 3.0 0.00 0.00 0.00 46 1019.5